Showing default

OTB, 44341

Orbit data source: Space-Track

OTB, 44341 is a payload satellite owned by GA-EMS (US) in LEO that was launched on Tue, 25 Jun 2019 UTC via an FALCON HEAVY launch vehicle from the Air Force Eastern Test Range (AFETR). Payload-class satellites include a variety of spacecraft equipped with specific instruments for various scientific and technological missions. These include communications satellites like Starlink; space stations such as the ISS; scientific satellites like the Hubble; Earth observation satellites from companies like Planet Labs, Umbra, and HawkEye 360; GPS; miniature CubeSats for education and research; and military/defense satellites.

Not visible in the next 10 days
Identifier
44341, 2019-036C
Orbit
LEO
Country
Flag of USUS
Related business
Manufacturer
GA-EMS
Mission
Operational Commercial Tech/Misc
Bus & Motor
SSTL-150, Unknown motor
Mass
100 kg wet, 100 kg dry
Launch date (UTC)
2019-06-25 (6 years ago)
Launch vehicle
FALCON HEAVY
Launch site
Air Force Eastern Test Range (AFETR)
Object type
Payload
Rocket body
Debris
Shape & HBR
Box + 4 Pan, 1.5 m
Radar Cross Section
1.570 m², Large (>1 m²)

Expand to show TLE details & history
Last TLE update: 20 hours ago

TLE from 20 hours ago
0 OTB
1 44341U 19036C   25242.68333959  .00002110  00000-0  41946-3 0  9997
2 44341  23.9979  19.5397 0011344  51.9137 308.2377 14.56299496328963
Epoch: 2025-08-30T16:24Z
TLE epoch observation values (Epoch: 2025-08-30T16:24:00.54Z)
Latitude
-0°
Longitude
154.42332°
Altitude
698.109 km
Speed
7.512 km/s
True Right ascension
01h 18m 09s
True Declination
0° 00' 00"
Sunlit
Object was in full shadow at epoch
Visualization orbit readout
Latitude
Unknown
Longitude
Unknown
Altitude
Unknown
Speed
Unknown
Apparent Right ascension
Unknown
Apparent Declination
Unknown
Sunlit
N/A
Visualization observer readout
Local Sidereal Time
03:36:24
Azimuth
Unknown
Elevation
Unknown
Doppler factor
Unknown
Orbital elements
Apogee altitude
717.87 km
Perigee altitude
701.789 km
Semi-major axis
7,087.967 km
Eccentricity
0.00113
Inclination
23.9979°
RAAN
19.5397°
Arg. of periapsis
51.9137°
True anomaly
308.13551°
Mean anomaly
308.2377°
Eccentric anomaly
308.18661°
Mean motion
3.63715 °/min
Orbital period
98.98 mins
BSTAR
0.00041946
Loading maneuver chart data...
Computing Atmospheric mass density...
Loading historical data...
Loading historical data...
Loading historical data...
Loading historical data...
Loading historical data...
Loading historical data...
Loading historical data...

Documentation

Showing up to 5 results
|